Vorticity
nan nan nan nan nan nan nan nan nan nan nan nan nan nan nan nan nan nan nan nan nan nan nan nan nan nan nan nan nan nan nan nan nan nan nan nan nan nan nan nan nan nan nan
nan 7 7 7 8 7 6 8 7 7 7 7 9 9 9 9 9 7 7 11 9 8 8 7 6 6 4 5 5 6 6 5 6 6 5 6 5 4 5 5 6 5 nan
nan 7 6 7 7 9 7 6 7 8 7 9 10 9 9 10 8 7 7 9 10 9 9 8 8 6 4 4 6 6 6 6 6 6 6 6 6 6 5 6 5 5 nan
nan 6 7 6 8 8 7 6 7 8 9 8 8 8 7 8 8 8 8 8 8 9 12 10 11 6 5 3 6 6 6 6 6 6 6 6 6 6 5 5 6 6 nan
nan 6 7 7 7 8 9 6 7 9 9 9 9 9 8 8 7 8 9 8 7 7 11 14 9 7 7 6 7 7 7 6 6 6 6 5 5 6 6 5 5 6 nan
nan 5 7 9 5 6 8 8 7 8 9 9 8 8 9 9 9 10 8 7 8 7 8 10 9 10 10 10 7 7 6 6 6 6 6 5 6 6 5 6 6 5 nan
nan 6 6 9 8 8 8 5 6 7 7 8 6 6 9 10 8 8 9 9 8 8 8 8 8 9 12 12 9 8 7 6 6 5 5 6 6 6 6 6 5 6 nan
nan 7 7 8 7 7 9 7 2 4 12 8 2 7 7 5 10 9 9 9 7 7 8 9 8 7 8 9 13 12 10 8 6 6 6 6 6 6 6 6 5 6 nan
nan 8 6 7 7 6 7 9 8 3 2 9 8 6 9 9 7 9 10 10 8 6 8 9 8 7 6 9 11 11 11 10 8 6 6 5 6 5 6 6 6 5 nan
nan 9 7 7 6 7 8 7 8 8 5 4 4 9 10 11 7 8 9 11 12 9 7 8 9 8 6 7 10 11 10 9 9 6 6 6 6 6 5 6 6 5 nan
nan 9 8 8 6 7 9 8 7 6 6 6 4 5 7 8 9 11 11 7 7 11 11 10 9 9 8 7 8 12 12 9 8 6 5 6 6 6 5 6 6 6 nan
nan 12 9 7 7 7 7 8 9 7 6 6 7 5 6 6 8 7 12 13 6 7 10 10 9 9 10 10 11 11 10 10 9 7 6 7 6 6 7 4 5 6 nan
nan 16 9 7 8 9 9 9 10 8 7 10 7 4 7 5 6 8 9 13 11 8 9 10 11 9 9 10 13 12 11 10 9 9 6 5 6 9 9 8 8 6 nan
nan 16 21 9 8 7 7 7 8 11 9 9 9 5 6 7 6 8 9 8 10 10 8 9 11 9 9 11 14 10 9 13 10 11 10 7 8 12 11 9 9 11 nan
nan 15 13 13 8 8 8 6 6 10 8 8 9 8 5 6 5 7 9 8 8 11 9 8 9 12 8 9 10 10 11 14 11 8 8 6 8 10 12 14 15 12 nan
nan 6 21 21 9 8 8 6 5 9 8 7 10 9 6 7 6 6 8 8 8 10 11 10 9 12 11 8 11 9 11 13 14 9 7 7 7 4 7 10 11 13 nan
nan 11 18 13 13 9 8 7 8 9 9 7 8 9 7 6 6 6 6 7 7 8 10 9 11 10 12 9 8 10 10 10 14 16 11 9 9 8 7 8 8 8 nan
nan 9 10 20 19 9 9 9 7 8 10 8 7 8 6 8 9 7 8 8 4 6 9 12 9 10 10 11 11 11 9 9 11 15 13 10 10 11 10 10 10 9 nan
nan 10 12 22 14 10 9 9 9 8 9 8 8 8 9 7 6 7 9 9 8 6 6 10 10 10 10 10 11 11 11 10 10 14 14 12 11 10 10 10 9 11 nan
nan 11 11 17 17 13 10 11 10 9 9 10 9 9 10 10 9 6 8 8 8 8 7 5 9 10 9 9 10 10 8 11 10 12 13 14 14 13 13 11 12 10 nan
nan 10 10 21 20 8 10 12 11 10 9 9 9 10 10 10 9 7 7 10 8 6 7 7 4 7 7 9 10 9 11 9 9 11 11 9 12 11 14 15 13 11 nan
nan 13 12 13 13 15 18 8 4 8 11 10 9 10 10 11 12 10 7 7 7 6 5 7 6 7 7 5 11 9 9 8 10 12 12 9 11 8 11 15 12 9 nan
nan 14 13 11 14 15 20 14 3 2 10 11 9 8 8 11 12 11 12 9 9 9 7 6 7 7 10 10 5 9 8 8 11 9 11 12 10 11 12 11 12 13 nan
nan 17 16 15 11 15 16 16 6 2 9 11 10 10 10 10 11 9 9 8 8 9 9 9 11 10 11 14 11 10 9 7 9 11 10 12 9 10 10 10 9 12 nan
nan 20 22 19 16 26 18 8 5 4 9 12 12 12 11 11 14 9 6 10 8 9 14 12 9 14 14 8 6 7 11 9 10 10 8 10 10 10 8 11 11 7 nan
nan nan nan nan nan nan nan nan nan nan nan nan nan nan nan nan nan nan nan nan nan nan nan nan nan nan nan nan nan nan nan nan nan nan nan nan nan nan nan nan nan nan nan
CAPE
0 0 0 0 0 0 0 0 0 0 0 0 0 0 0 0 0 0 21 42 71 70 23 22 81 91 65 44 26 1 11 6 14 17 39 26 8 23 21 20 22 18 23
0 0 0 0 0 2 0 0 0 0 0 0 0 0 0 0 0 1 15 30 45 73 71 49 100 85 69 47 24 5 10 9 10 8 13 25 16 13 12 16 14 7 12
0 0 0 0 0 0 0 0 0 0 0 0 0 0 0 0 1 7 12 22 28 43 73 141 109 97 63 48 14 13 12 12 15 14 6 14 8 5 12 10 10 7 8
0 0 0 0 0 0 0 0 0 0 0 0 0 0 9 10 7 11 22 19 25 33 50 89 148 104 64 50 15 11 13 14 11 9 15 10 9 10 9 9 9 9 8
0 0 0 0 0 0 0 0 0 0 0 0 0 0 15 9 8 18 14 19 33 19 20 38 87 63 81 51 15 5 12 11 11 13 10 12 5 7 9 7 6 7 8
0 0 0 0 0 0 0 0 0 0 0 0 0 0 18 21 9 20 12 17 25 14 17 12 46 44 40 81 33 5 7 7 8 10 6 7 6 7 7 7 7 6 6
0 0 0 0 0 0 0 0 0 0 0 0 0 2 1 13 23 29 7 0 0 0 2 5 5 0 10 43 66 23 1 5 6 8 7 6 8 8 8 7 5 4 4
0 0 0 0 0 0 0 0 0 0 0 0 3 0 23 13 0 0 12 2 1 1 0 0 10 3 0 0 8 42 17 4 7 9 9 8 7 8 8 7 5 3 2
0 0 0 0 0 0 0 0 0 0 0 0 0 0 1 7 3 0 0 8 0 0 0 0 0 4 0 0 1 9 2 19 7 12 12 12 8 11 10 9 9 5 2
0 0 0 0 0 0 0 0 0 0 0 0 0 0 0 0 0 0 0 0 3 1 0 0 0 0 0 0 0 0 1 5 40 23 12 5 9 8 14 7 12 7 2
0 0 0 0 0 0 0 0 0 0 0 0 0 0 0 0 0 0 0 0 0 0 0 0 0 5 0 0 0 0 0 7 33 46 48 32 32 28 13 11 9 9 4
6 0 0 0 0 0 0 0 0 0 0 0 0 0 0 0 0 0 0 0 2 0 0 0 0 1 0 0 0 0 0 7 66 93 82 115 90 68 53 59 22 16 5
16 0 0 0 0 0 0 0 0 0 0 0 0 0 0 0 0 0 0 0 0 0 0 0 0 0 0 0 0 0 0 0 25 99 103 130 163 148 113 102 99 42 12
6 10 0 0 0 0 0 0 0 0 0 0 0 0 0 0 0 0 0 0 0 0 0 0 0 0 0 0 0 0 0 0 0 38 91 102 102 84 97 135 148 156 78
6 2 11 1 0 0 0 0 0 0 0 0 0 0 0 0 0 0 0 0 0 0 0 0 0 0 0 0 0 0 0 0 0 0 8 17 26 32 34 51 64 81 111
6 2 2 20 2 0 0 0 0 0 0 0 0 0 0 0 0 0 0 0 0 0 0 0 0 0 0 0 0 0 0 0 0 0 0 0 0 3 2 5 22 40 47
5 11 2 27 4 0 0 0 0 0 0 0 0 0 0 0 0 0 0 0 0 0 0 0 0 0 0 0 0 0 0 0 0 0 0 0 0 0 1 0 2 10 15
12 7 10 18 37 8 0 0 0 0 0 0 0 0 0 0 0 0 0 0 0 0 0 0 0 0 0 0 0 0 0 0 0 0 0 0 0 0 0 0 0 0 0
9 8 9 9 77 52 10 0 0 0 0 0 0 0 0 0 0 0 0 0 0 0 0 0 0 0 0 0 0 0 0 0 0 0 0 0 0 0 0 0 0 0 0
8 10 8 5 117 120 58 3 0 0 0 0 0 0 0 0 0 0 0 0 0 0 0 0 0 0 0 0 0 0 0 0 0 0 0 0 0 0 0 0 0 0 0
8 7 9 0 65 77 49 13 1 0 0 0 0 0 0 0 0 0 0 0 0 0 0 0 0 0 0 0 0 0 0 0 0 0 0 0 0 0 0 0 0 0 0
7 7 8 3 40 85 24 0 0 0 0 0 0 0 0 0 0 0 0 0 0 0 0 0 0 0 0 0 0 0 0 0 0 0 0 0 0 0 0 0 0 0 0
11 12 9 8 18 78 13 0 0 0 3 0 0 0 0 0 0 0 0 0 0 0 0 0 0 0 0 0 0 0 0 0 0 0 0 0 0 0 0 0 0 0 0
7 9 11 6 4 0 0 0 0 9 3 0 1 0 0 0 0 0 0 0 0 0 0 0 0 0 0 0 0 0 0 0 0 0 0 0 0 0 0 0 0 0 0
3 4 0 3 6 117 22 0 0 35 20 6 0 0 0 0 0 0 0 0 0 0 0 0 0 0 0 0 0 0 0 0 0 0 0 0 0 0 0 0 0 0 0
3 4 1 0 0 1 4 0 0 52 59 2 0 0 0 0 0 0 0 0 0 0 0 0 0 0 0 0 0 0 0 0 0 0 0 0 0 0 0 0 0 0 0